AirNav   Free Bose Alto or Rondo audio sunglasses
 
 1374 users online  

FD90 Lafayette Landings Airport
De Leon Springs, Florida, USA

GOING TO DE LEON SPRINGS?


FAA INFORMATION EFFECTIVE 05 NOVEMBER 2020

Location

FAA Identifier: FD90
Lat/Long: 29-10-06.9330N 081-15-53.2220W
29-10.115550N 081-15.887033W
29.1685925,-81.2647839
(estimated)
Elevation: 35 ft. / 11 m (estimated)
Variation: 03W (1980)
From city: 3 miles NE of DE LEON SPRINGS, FL
Time zone: UTC -5 (UTC -4 during Daylight Saving Time)
Zip code: 32130

Airport Operations

Airport use: Private use. Permission required prior to landing
Activation date: 11/1986
Control tower: no
ARTCC: JACKSONVILLE CENTER
FSS: SAINT PETERSBURG FLIGHT SERVICE STATION
Attendance: UNATNDD
Wind indicator: yes
Segmented circle: no

Airport Communications

WX AWOS-3 at DED (6 nm S): 119.575 (386-740-5811)
WX ASOS at DAB (11 nm E): 132.875 (386-257-6444)
WX AWOS-3 at OMN (11 nm NE): 118.475 (386-615-7084)
WX AWOS-3 at EVB (18 nm E): 124.625 (386-409-4705)
WX AWOS-3 at FIN (18 nm N): 128.325 (386-437-7334)

Nearby radio navigation aids

VOR radial/distance  VOR name  Freq  Var
OMNr225/11.3ORMOND BEACH VORTAC112.6000E
ORLr006/37.7ORLANDO VORTAC112.2000E

Airport Services

Runway Information

Runway 15/33

Dimensions: 3200 x 200 ft. / 975 x 61 m
Surface: turf
RUNWAY 15  RUNWAY 33
Traffic pattern: leftleft

Airport Ownership and Management from official FAA records

Ownership: Privately-owned
Owner: LAFAYETTE LANDINGS
3140 LAFAYETTE LANDING DR.
DE LEON SPRINGS, FL 32130
Phone (386) 738-7381
Manager: DOUGLAS A. PENNYPACKER, PRESIDENT
3140 LAFAYETTE LANDING DR.
DE LEON SPRINGS, FL 32130
Phone (386) 738-0584

Airport Operational Statistics

Aircraft based on the field: 7
Single engine airplanes: 5
Helicopters: 1
Gliders airplanes: 1
    
Aircraft operations: avg 29/month
100% local general aviation

Additional Remarks

TIRES - 200 FT APART MARK THE RWY.
FOR CD CTC DAYTONA APCH AT 386-226-3939.

Instrument Procedures

There are no published instrument procedures at FD90.

Some nearby airports with instrument procedures:

KDED - DeLand Municipal Airport-Sidney H Taylor Field (6 nm S)
KDAB - Daytona Beach International Airport (11 nm E)
KOMN - Ormond Beach Municipal Airport (11 nm NE)
KEVB - New Smyrna Beach Municipal Airport (18 nm E)
KFIN - Flagler Executive Airport (18 nm N)
 
Loc | Ops | Rwys | IFR | FBO | Links
Com | Nav | Svcs | Stats | Notes
Area around FD90 (Lafayette Landings Airport)
 
Road maps at: MapQuest Bing Google
 
Aerial photo
WARNING: Photo may not be current or correct
Aerial photo of FD90 (Lafayette Landings Airport)
Photo by Eddie Moran
Photo taken 14-Jul-2006
looking towards the southeast or runway 15

Do you have a better or more recent aerial photo of Lafayette Landings Airport that you would like to share? If so, please send us your photo.

 
Sectional chart

 
Airport distance calculator
Flying to Lafayette Landings Airport? Find the distance to fly.

From to FD90

Sunrise and sunset
Times for 30-Nov-2020
 Local
(UTC-5)
 Zulu
(UTC)
Morning civil twilight06:3711:37
Sunrise07:0312:03
Sunset17:2622:26
Evening civil twilight17:5122:51

Current date and time
Zulu (UTC)  30-Nov-2020 21:13:02
Local (UTC-5)  30-Nov-2020 16:13:02
 
METAR
KDED 
6nm S 
302055Z AUTO 26010G20KT 10SM CLR 21/10 A2984 RMK AO2 T02060104
KDAB 
10nm E 
302053Z 24012KT 10SM FEW075 FEW250 22/12 A2980 RMK AO2 SLP091 T02170122 55004
KOMN 
11nm NE 
302050Z 24011G15KT 7SM CLR 22/10 A2980
KEVB 
18nm E 
302047Z 10SM CLR RMK AWOS OTS
KFIN 
18nm N 
302050Z 26010G19KT 10SM CLR 21/11 A2981
TAF
KDAB 
10nm E 
301724Z 3018/0118 25012G20KT P6SM SCT025 BKN060 FM302100 28011KT P6SM SCT100 BKN200 FM010200 27007KT P6SM SKC FM011500 31010KT P6SM FEW020
NOTAMs
Click for the latest NOTAMs
NOTAMs are issued by the DoD/FAA and will open in a separate window not controlled by AirNav.

 

 
 

Would you like to see your business listed on this page?

 If your business provides an interesting product or service to pilots, flight crews, aircraft, or users of the Lafayette Landings Airport, you should consider listing it here.  To start the listing process, click on the button below
 
Add a business
 

Other Pages about Lafayette Landings Airport

Update a link
 
Copyright © AirNav, LLC. All rights reserved. Privacy Policy  Contact